Hourly Data Report for August 02, 2022

ST-JOVITE
QUEBEC
Current Station Operator: ECCC - MSC

46°04'49.000" N
74°33'21.000" W
238.50 m
703GDKB
71376
WJT

Download Data

Hourly Data (August 2022)
Hourly Data Report for August 2, 2022
TIME
LST
Temp Definition
°C
Dew Point Definition
°C
Rel Hum Definition
%
Precip. Amount Definition
mm

Wind Dir Definition
10's deg

Wind Spd Definition
km/h
Visibility Definition
km
Stn Press Definition
kPa
Hmdx Definition


Wind Chill Definition


Weather Definition


00:00 21.4 17.6 79 0.0 23 3   97.74 27   LegendNANA
01:00 21.2 18.3 83 0.0 20 2   97.68 27   LegendNANA
02:00 20.2 18.9 92 0.0   0   97.67 27   LegendNANA
03:00 20.1 18.8 92 0.0   0   97.65 27   LegendNANA
04:00 20.1 18.8 92 0.0   0   97.66 27   LegendNANA
05:00 20.1 18.9 93 0.0   0   97.69 27   LegendNANA
06:00 20.2 19.6 96 0.0   0   97.74 27   LegendNANA
07:00 20.5 19.9 96 0.0   0   97.80 28   LegendNANA
08:00 21.5 20.6 94 0.0 0 1   97.83 30   LegendNANA
09:00 20.3 17.9 86 0.0 34 3   97.92 26   LegendNANA
10:00 20.7 17.6 83 0.0 28 2   98.00 26   LegendNANA
11:00 19.6 16.4 82 0.0 27 4   98.05     LegendNANA
12:00 20.6 16.3 77 0.0 26 4   98.07 25   LegendNANA
13:00 22.4 16.3 68 0.0 32 3   98.10 27   LegendNANA
14:00 23.3 14.5 58 0.0 28 5   98.16 27   LegendNANA
15:00 22.9 14.2 58 0.0 27 5   98.22 26   LegendNANA
16:00 20.6 13.4 63 0.0 28 3   98.29     LegendNANA
17:00 19.7 13.6 68 0.0 27 3   98.38     LegendNANA
18:00 17.6 12.7 73 0.0 33 2   98.46     LegendNANA
19:00 16.5 12.9 79 0.0 29 2   98.51     LegendNANA
20:00 14.4 12.7 90 0.0   0   98.55     LegendNANA
21:00 12.5 12.2 98 0.0 7 1   98.61     LegendNANA
22:00 11.7 11.7 100 0.0   0   98.62     LegendNANA
23:00 10.6 10.6 100 0.0   0   98.64     LegendNANA

Notes on Data Quality.

Legend

  • E = Estimated
  • M = Missing
  • NA = Not Available*
  • [empty] = Indicates an unobserved value
Date modified: